This is the latest recevied weather packets stored in our database for station/object MM1PTT-13. If no packets are shown the sender has not sent any weather packets the latest 10 day(s).
| Time | Temp. | Humidity | Pressure | Rain* | Wind** | Luminosity | Snow |
|---|---|---|---|---|---|---|---|
| 1777403444 | 10.56° C | 75% | 1001.7 hPa | 0 mm | - | 22 W/m² | - |
| 1777403145 | 10.56° C | 74% | 1001.7 hPa | 0 mm | - | 24 W/m² | - |
| 1777402845 | 11.11° C | 73% | 1001.4 hPa | 0 mm | - | 28 W/m² | - |
| 1777402543 | 11.11° C | 73% | 1001.7 hPa | 0 mm | - | 31 W/m² | - |
| 1777402243 | 11.11° C | 72% | 1001.4 hPa | 0 mm | - | 33 W/m² | - |
| 1777401945 | 11.67° C | 72% | 1001.4 hPa | 0 mm | - | 35 W/m² | - |
| 1777401644 | 11.67° C | 70% | 1001.4 hPa | 0 mm | - | 36 W/m² | - |
| 1777401343 | 11.67° C | 70% | 1001.4 hPa | 0 mm | - | 37 W/m² | - |
| 1777401043 | 12.22° C | 68% | 1001.4 hPa | 0 mm | - | 42 W/m² | - |
| 1777400744 | 12.22° C | 68% | 1001.4 hPa | 0 mm | - | 42 W/m² | - |
| 1777400444 | 12.22° C | 66% | 1001.4 hPa | 0 mm | - | 43 W/m² | - |
| 1777400144 | 12.78° C | 65% | 1001.4 hPa | 0 mm | - | 44 W/m² | - |
| 1777399844 | 12.78° C | 64% | 1001.4 hPa | 0 mm | - | 59 W/m² | - |
| 1777399543 | 13.33° C | 64% | 1001.4 hPa | 0 mm | - | 63 W/m² | - |
| 1777399242 | 13.33° C | 62% | 1001.4 hPa | 0 mm | - | 66 W/m² | - |
| 1777398942 | 13.33° C | 60% | 1001.4 hPa | 0 mm | - | 69 W/m² | - |
| 1777398642 | 13.33° C | 60% | 1001.4 hPa | 0 mm | - | 73 W/m² | - |
| 1777398343 | 13.33° C | 61% | 1001 hPa | 0 mm | - | 77 W/m² | - |
| 1777398044 | 13.33° C | 61% | 1001.4 hPa | 0 mm | - | 80 W/m² | - |
| 1777397743 | 13.33° C | 62% | 1001.4 hPa | 0 mm | - | 84 W/m² | - |
| 1777397446 | 13.33° C | 61% | 1001.4 hPa | 0 mm | - | 89 W/m² | - |
| 1777397148 | 13.33° C | 59% | 1001.4 hPa | 0 mm | - | 93 W/m² | - |
| 1777396844 | 13.89° C | 60% | 1001.4 hPa | 0 mm | - | 98 W/m² | - |
| 1777396545 | 13.33° C | 60% | 1001.4 hPa | 0 mm | - | 102 W/m² | - |
| 1777396246 | 13.89° C | 59% | 1001.4 hPa | 0 mm | - | 106 W/m² | - |
* Rain latest hour (hover to see other rain measurements)
** Current wind speed in m/s (hover to see current wind gust speed)